Location: Newark
(52.4787°S, 179.0532°W)
Time: 11:29:22
(UTC+00:00)

Transit 2A Rocket - Pass Details

Date: 27 November 2019
Orbit: 594 x 909 km, 66.7° (Epoch: 14 December)

Event Time Altitude Azimuth Distance (km) Brightness Sun altitude
Rises 04:47:11 0° 222° (SW) 3,573 9.1 25.1°
Reaches altitude 10° 04:49:55 10° 229° (SW) 2,616 8.7 24.7°
Maximum altitude 04:55:30 39° 295° (WNW) 1,322 7.6 23.8°
Drops below altitude 10° 05:00:48 10° 1° (N) 2,474 7.6 23.0°
Sets 05:03:19 0° 9° (N) 3,358 8.2 22.6°
